Change the Weather History Date:

Friday, November 11, 2011

  Actual Average Record
Temperature  
Mean Temperature 32 °F -  
Max Temperature 37 °F 37 °F 51 °F (1987)
Min Temperature 28 °F 26 °F -3 °F (1955)
Degree Days  
Heating Degree Days 32    
Moisture  
Dew Point 30 °F    
Average Humidity 91    
Maximum Humidity 93    
Minimum Humidity 86    
Precipitation  
Precipitation 0.00 in - - ()
Sea Level Pressure  
Sea Level Pressure 29.54 in    
Wind  
Wind Speed 2 mph (WNW)    
Max Wind Speed 7 mph    
Max Gust Speed -    
Visibility 8 miles    
Events      
Averages and records for this station are not official NWS values.
T = Trace of Precipitation, MM = Missing Value Source: NWS Daily Summary

Daily Weather History Graph

Daily Weather History Graph

Search for Another Location

Airport or City:

Trip Planner

Search our weather history database for the weather conditions in past years. The results will help you decide how hot, cold, wet, or windy it might be!

Date:

Astronomy

Nov. 11, 2011 Rise Set
Actual Time 7:42 AM AKST 3:50 PM AKST
Civil Twilight 6:57 AM AKST 4:35 PM AKST
Nautical Twilight 6:08 AM AKST 5:24 PM AKST
Astronomical Twilight 5:22 AM AKST 6:10 PM AKST
Moon 3:59 PM AKST (11/11) 9:02 AM AKST (11/11)
Length of Visible Light 9h 38m
Length of Day
8h 08m
Full, 99% of the Moon is Illuminated
Nov 11
Full
Nov 18
Last Quarter
Nov 24
New
Dec 2
First Quarter
Dec 10
Full

Hourly Weather History & Observations

Time (AKST) Temp. Windchill Dew Point Humidity Pressure Visibility Wind Dir Wind Speed Gust Speed Precip Events Conditions
12:16 AM 35.6 °F 29.9 °F 33.8 °F 93% 29.36 in 5.0 mi NW 6.9 mph - N/A   Overcast
12:36 AM 37.4 °F 32.1 °F 33.8 °F 87% 29.37 in 4.0 mi NW 6.9 mph - N/A   Overcast
12:56 AM 35.6 °F 30.7 °F 33.8 °F 93% 29.38 in 9.0 mi NNW 5.8 mph - N/A   Mostly Cloudy
1:16 AM 35.6 °F 31.7 °F 33.8 °F 93% 29.39 in 8.0 mi NW 4.6 mph - N/A   Overcast
1:36 AM 35.6 °F - 33.8 °F 93% 29.40 in 7.0 mi Calm Calm - N/A   Mostly Cloudy
1:56 AM 35.6 °F - 33.8 °F 93% 29.41 in 1.0 mi Calm Calm - N/A   Overcast
2:16 AM 35.6 °F - 32.0 °F 87% 29.43 in 0.8 mi Calm Calm - N/A   Overcast
2:36 AM 33.8 °F - 30.2 °F 87% 29.44 in 1.2 mi Calm Calm - N/A   Overcast
2:56 AM 33.8 °F 27.7 °F 30.2 °F 87% 29.45 in 1.8 mi WSW 6.9 mph - N/A   Overcast
3:16 AM 33.8 °F - 30.2 °F 87% 29.45 in 1.2 mi Calm Calm - N/A   Overcast
3:36 AM 32.0 °F - 30.2 °F 93% 29.46 in 5.0 mi Calm Calm - N/A   Partly Cloudy
3:56 AM 30.2 °F 26.7 °F 28.4 °F 93% 29.47 in 7.0 mi WSW 3.5 mph - N/A   Clear
4:16 AM 30.2 °F - 28.4 °F 93% 29.48 in 10.0 mi Calm Calm - N/A   Clear
4:36 AM 30.2 °F - 28.4 °F 93% 29.49 in 10.0 mi Calm Calm - N/A   Clear
4:56 AM 30.2 °F - 28.4 °F 93% 29.50 in 5.0 mi Calm Calm - N/A   Clear
5:16 AM 30.2 °F - 28.4 °F 93% 29.51 in 10.0 mi Calm Calm - N/A   Clear
5:36 AM 30.2 °F - 28.4 °F 93% 29.51 in 10.0 mi Calm Calm - N/A   Clear
5:56 AM 30.2 °F 26.7 °F 26.6 °F 86% 29.52 in 10.0 mi WSW 3.5 mph - N/A   Clear
6:16 AM 30.2 °F - 28.4 °F 93% 29.53 in 10.0 mi Calm Calm - N/A   Clear
6:36 AM 30.2 °F 25.4 °F 28.4 °F 93% 29.54 in 10.0 mi NNE 4.6 mph - N/A   Clear
6:56 AM 30.2 °F - 26.6 °F 86% 29.55 in 10.0 mi Calm Calm - N/A   Clear
7:16 AM 28.4 °F - 26.6 °F 93% 29.56 in 10.0 mi Calm Calm - N/A   Clear
7:36 AM 28.4 °F - 26.6 °F 93% 29.56 in 10.0 mi Calm Calm - N/A   Clear
7:56 AM 28.4 °F - 26.6 °F 93% 29.56 in 10.0 mi Calm Calm - N/A   Clear
8:16 AM 28.4 °F - 24.8 °F 86% 29.57 in 10.0 mi Calm Calm - N/A   Clear
8:36 AM 28.4 °F - 26.6 °F 93% 29.58 in 10.0 mi Calm Calm - N/A   Clear
8:56 AM 28.4 °F - 26.6 °F 93% 29.59 in 10.0 mi Calm Calm - N/A   Clear
9:16 AM 30.2 °F - 28.4 °F 93% 29.60 in 10.0 mi Calm Calm - N/A   Clear
9:36 AM 30.2 °F - 28.4 °F 93% 29.61 in 10.0 mi Calm Calm - N/A   Clear
9:56 AM 32.0 °F - 30.2 °F 93% 29.61 in 10.0 mi Calm Calm - N/A   Clear
10:36 AM 33.8 °F - 32.0 °F 93% 29.61 in 10.0 mi Calm Calm - N/A   Clear
10:56 AM 35.6 °F - 33.8 °F 93% 29.63 in 10.0 mi Calm Calm - N/A   Clear
11:16 AM 35.6 °F - 33.8 °F 93% 29.64 in 10.0 mi Calm Calm - N/A   Clear
11:36 AM 35.6 °F - 33.8 °F 93% 29.64 in 10.0 mi Calm Calm - N/A   Partly Cloudy
11:56 AM 35.6 °F - 33.8 °F 93% 29.64 in 10.0 mi Calm Calm - N/A   Partly Cloudy
12:16 PM 37.4 °F - 33.8 °F 87% 29.65 in 10.0 mi Calm Calm - N/A   Clear
12:36 PM 37.4 °F - 33.8 °F 87% 29.64 in 10.0 mi Calm Calm - N/A   Clear
12:56 PM 37.4 °F - 33.8 °F 87% 29.64 in 10.0 mi Calm Calm - N/A   Clear
1:16 PM 35.6 °F - 33.8 °F 93% 29.64 in 10.0 mi Calm Calm - N/A   Clear
1:36 PM 35.6 °F - 33.8 °F 93% 29.63 in 10.0 mi Calm Calm - N/A   Clear
1:56 PM 35.6 °F - 33.8 °F 93% 29.62 in 10.0 mi Calm Calm - N/A   Clear
2:36 PM 33.8 °F - 30.2 °F 87% 29.61 in 10.0 mi Calm Calm - N/A   Clear
2:56 PM 33.8 °F - 30.2 °F 87% 29.61 in 2.5 mi Calm Calm - N/A   Clear
3:16 PM 33.8 °F - 30.2 °F 87% 29.61 in 5.0 mi Calm Calm - N/A   Clear
3:36 PM 33.8 °F - 30.2 °F 87% 29.61 in 2.0 mi Calm Calm - N/A   Clear
3:56 PM 32.0 °F - 30.2 °F 93% 29.60 in 5.0 mi Calm Calm - N/A   Clear
4:16 PM 32.0 °F - 28.4 °F 87% 29.59 in 10.0 mi Calm Calm - N/A   Clear
4:36 PM 32.0 °F - 28.4 °F 87% 29.59 in 10.0 mi Calm Calm - N/A   Scattered Clouds
4:56 PM 30.2 °F - 28.4 °F 93% 29.57 in 10.0 mi Calm Calm - N/A   Mostly Cloudy
5:16 PM 32.0 °F - 28.4 °F 87% 29.56 in 10.0 mi Calm Calm - N/A   Overcast
5:36 PM 32.0 °F - 28.4 °F 87% 29.55 in 10.0 mi Calm Calm - N/A   Overcast
5:56 PM 32.0 °F - 30.2 °F 93% 29.53 in 10.0 mi Calm Calm - N/A   Mostly Cloudy
6:16 PM 33.8 °F - 30.2 °F 87% 29.51 in 10.0 mi Calm Calm - N/A   Scattered Clouds
6:36 PM 33.8 °F - 30.2 °F 87% 29.51 in 10.0 mi Calm Calm - N/A   Mostly Cloudy
6:56 PM 32.0 °F - 30.2 °F 93% 29.50 in 10.0 mi Calm Calm - N/A   Overcast
7:16 PM 33.8 °F 29.6 °F 30.2 °F 87% 29.49 in 10.0 mi SSE 4.6 mph - N/A   Overcast
7:36 PM 35.6 °F 30.7 °F 30.2 °F 81% 29.48 in 10.0 mi South 5.8 mph - N/A   Overcast
7:56 PM 35.6 °F 31.7 °F 28.4 °F 75% 29.45 in 10.0 mi South 4.6 mph - N/A   Overcast
8:16 PM 35.6 °F 30.7 °F 28.4 °F 75% 29.43 in 10.0 mi SE 5.8 mph - N/A   Overcast
8:36 PM 35.6 °F 30.7 °F 28.4 °F 75% 29.42 in 5.0 mi SSE 5.8 mph - N/A   Overcast
8:56 PM 35.6 °F 32.8 °F 28.4 °F 75% 29.39 in 7.0 mi SSE 3.5 mph - N/A   Overcast
9:16 PM 33.8 °F 27.0 °F 30.2 °F 87% 29.39 in 3.0 mi SSE 8.1 mph - N/A   Overcast
9:36 PM 33.8 °F 27.7 °F 30.2 °F 87% 29.38 in 2.0 mi SE 6.9 mph - N/A   Overcast
9:56 PM 33.8 °F 27.0 °F 30.2 °F 87% 29.35 in 3.0 mi ESE 8.1 mph - N/A   Overcast
10:16 PM 33.8 °F 27.7 °F 30.2 °F 87% 29.31 in 5.0 mi SE 6.9 mph - N/A   Overcast
10:36 PM 33.8 °F 27.0 °F 30.2 °F 87% 29.30 in 5.0 mi SE 8.1 mph - N/A   Overcast
10:56 PM 33.8 °F 26.4 °F 30.2 °F 87% 29.27 in 7.0 mi SE 9.2 mph 16.1 mph N/A   Overcast
11:16 PM 33.8 °F 26.4 °F 30.2 °F 87% 29.24 in 9.0 mi SE 9.2 mph - N/A   Overcast
11:36 PM 35.6 °F 27.1 °F 32.0 °F 87% 29.21 in 10.0 mi ESE 12.7 mph 16.1 mph N/A   Overcast
11:56 PM 35.6 °F 27.1 °F 30.2 °F 81% 29.17 in 10.0 mi ESE 12.7 mph - N/A   Overcast